Location: *
(60.1759°S, 155.0663°W)
Time: 12:21:09
(UTC+00:00)

Cosmos 1602 - Pass Details

Date: 17 September 2019
Orbit: 515 x 534 km, 82.5° (Epoch: 15 October)

Event Time Altitude Azimuth Distance (km) Brightness Sun altitude
Rises 14:50:19 0° 359° (N) 2,684 7.1 -12.3°
Reaches altitude 10° 14:52:28 10° 2° (N) 1,798 6.3 -12.0°
Maximum altitude 14:56:21 59° 81° (E) 627 4.4 -11.6°
Drops below altitude 10° 15:00:17 10° 161° (SSE) 1,809 6.9 -11.1°
Sets 15:02:27 0° 164° (SSE) 2,704 7.8 -10.8°
